Time,TemperatureF,DewpointF,PressureIn,WindDirection,WindDirectionDegrees,WindSpeedMPH,WindSpeedGustMPH,Humidity,HourlyPrecipIn,Conditions,Clouds,dailyrainin,SolarRadiationWatts/m^2,SoftwareType,DateUTC
2013-01-19 00:00:00,39.0,33.0,-100.00,SSW,202,13.0,-999.0,76,-99.99,,,-99.99,0.000000,,2013-01-19 05:00:00,
2013-01-19 00:43:00,39.0,33.0,-100.00,SSW,202,13.0,-999.0,76,-99.99,,,-99.99,0.000000,,2013-01-19 05:43:00,
2013-01-19 00:53:00,39.0,33.0,-100.00,SSW,202,13.0,-999.0,76,-99.99,,,-99.99,0.000000,,2013-01-19 05:53:00,
2013-01-19 01:00:00,39.0,33.0,-100.00,SSW,202,12.0,-999.0,79,-99.99,,,-99.99,0.000000,,2013-01-19 06:00:00,
2013-01-19 01:43:00,39.0,33.0,-100.00,SSW,202,12.0,-999.0,79,-99.99,,,-99.99,0.000000,,2013-01-19 06:43:00,
2013-01-19 01:53:00,39.0,33.0,-100.00,SSW,202,12.0,-999.0,79,-99.99,,,-99.99,0.000000,,2013-01-19 06:53:00,
2013-01-19 02:00:00,38.0,34.0,-100.00,South,180,11.0,-999.0,83,-99.99,,,-99.99,0.000000,,2013-01-19 07:00:00,
2013-01-19 02:43:00,38.0,34.0,-100.00,South,180,11.0,-999.0,83,-99.99,,,-99.99,0.000000,,2013-01-19 07:43:00,
2013-01-19 02:53:00,38.0,34.0,-100.00,South,180,11.0,-999.0,83,-99.99,,,-99.99,0.000000,,2013-01-19 07:53:00,
2013-01-19 03:00:00,32.0,30.0,-100.00,ESE,112,5.0,-999.0,92,-99.99,,,-99.99,0.000000,,2013-01-19 08:00:00,
2013-01-19 03:43:00,32.0,30.0,-100.00,ESE,112,5.0,-999.0,92,-99.99,,,-99.99,0.000000,,2013-01-19 08:43:00,
2013-01-19 03:53:00,32.0,30.0,-100.00,ESE,112,5.0,-999.0,92,-99.99,,,-99.99,0.000000,,2013-01-19 08:53:00,
2013-01-19 04:00:00,31.0,29.0,-100.00,SE,135,3.0,-999.0,93,-99.99,,,-99.99,0.000000,,2013-01-19 09:00:00,
2013-01-19 04:43:00,31.0,29.0,-100.00,SE,135,3.0,-999.0,93,-99.99,,,-99.99,0.000000,,2013-01-19 09:43:00,
2013-01-19 04:53:00,31.0,29.0,-100.00,SE,135,3.0,-999.0,93,-99.99,,,-99.99,0.000000,,2013-01-19 09:53:00,
2013-01-19 05:00:00,31.0,29.0,-100.00,ESE,112,1.0,-999.0,93,-99.99,,,-99.99,0.000000,,2013-01-19 10:00:00,
2013-01-19 05:43:00,31.0,29.0,-100.00,ESE,112,1.0,-999.0,93,-99.99,,,-99.99,0.000000,,2013-01-19 10:43:00,
2013-01-19 05:53:00,31.0,29.0,-100.00,ESE,112,1.0,-999.0,93,-99.99,,,-99.99,0.000000,,2013-01-19 10:53:00,
2013-01-19 06:00:00,32.0,29.0,-100.00,West,270,5.0,-999.0,90,-99.99,,,-99.99,0.000000,,2013-01-19 11:00:00,
2013-01-19 07:00:00,32.0,28.0,-100.00,West,270,7.0,-999.0,87,-99.99,,,-99.99,0.000000,,2013-01-19 12:00:00,
2013-01-19 07:48:00,32.0,28.0,-100.00,West,270,7.0,-999.0,87,-99.99,,,-99.99,0.000000,,2013-01-19 12:48:00,
2013-01-19 07:53:00,32.0,28.0,-100.00,West,270,7.0,-999.0,87,-99.99,,,-99.99,0.000000,,2013-01-19 12:53:00,
2013-01-19 08:00:00,31.0,28.0,-100.00,WNW,292,6.0,-999.0,87,-99.99,,,-99.99,0.000000,,2013-01-19 13:00:00,
2013-01-19 08:43:00,31.0,28.0,-100.00,WNW,292,6.0,-999.0,87,-99.99,,,-99.99,0.000000,,2013-01-19 13:43:00,
2013-01-19 08:54:00,31.0,28.0,-100.00,WNW,292,6.0,-999.0,87,-99.99,,,-99.99,0.000000,,2013-01-19 13:54:00,
2013-01-19 09:00:00,31.0,28.0,-100.00,West,270,5.0,-999.0,87,-99.99,,,-99.99,5.800000,,2013-01-19 14:00:00,
2013-01-19 09:43:00,31.0,28.0,-100.00,West,270,5.0,-999.0,87,-99.99,,,-99.99,5.800000,,2013-01-19 14:43:00,
2013-01-19 09:54:00,31.0,28.0,-100.00,West,270,5.0,-999.0,87,-99.99,,,-99.99,5.800000,,2013-01-19 14:54:00,
2013-01-19 10:00:00,30.0,29.0,-100.00,WSW,247,3.0,-999.0,96,-99.99,,,-99.99,20.879999,,2013-01-19 15:00:00,
2013-01-19 10:43:00,30.0,29.0,-100.00,WSW,247,3.0,-999.0,96,-99.99,,,-99.99,20.879999,,2013-01-19 15:43:00,
2013-01-19 10:53:00,30.0,29.0,-100.00,WSW,247,3.0,-999.0,96,-99.99,,,-99.99,20.879999,,2013-01-19 15:53:00,
2013-01-19 11:00:00,31.0,30.0,-100.00,SSE,157,1.0,-999.0,97,-99.99,,,-99.99,30.160000,,2013-01-19 16:00:00,
2013-01-19 11:43:00,31.0,30.0,-100.00,SSE,157,1.0,-999.0,97,-99.99,,,-99.99,30.160000,,2013-01-19 16:43:00,
2013-01-19 11:54:00,31.0,30.0,-100.00,SSE,157,1.0,-999.0,97,-99.99,,,-99.99,30.160000,,2013-01-19 16:54:00,
2013-01-19 12:00:00,31.0,31.0,-100.00,South,180,4.0,-999.0,98,-99.99,,,-99.99,41.759998,,2013-01-19 17:00:00,
2013-01-19 12:38:00,31.0,31.0,-100.00,South,180,4.0,-999.0,98,-99.99,,,-99.99,41.759998,,2013-01-19 17:38:00,
2013-01-19 12:50:00,31.0,31.0,-100.00,South,180,4.0,-999.0,98,-99.99,,,-99.99,41.759998,,2013-01-19 17:50:00,
2013-01-19 12:55:00,31.0,31.0,-100.00,South,180,4.0,-999.0,98,-99.99,,,-99.99,41.759998,,2013-01-19 17:55:00,
2013-01-19 13:00:00,33.0,32.0,-100.00,South,180,7.0,-999.0,98,0.05,,,-99.99,98.599998,,2013-01-19 18:00:00,
2013-01-19 13:48:00,33.0,32.0,-100.00,South,180,7.0,-999.0,98,0.05,,,-99.99,98.599998,,2013-01-19 18:48:00,
2013-01-19 14:00:00,35.0,34.0,-100.00,SSW,202,8.0,-999.0,94,0.07,,,-99.99,126.440002,,2013-01-19 19:00:00,
2013-01-19 14:59:00,35.0,34.0,-100.00,SSW,202,8.0,-999.0,94,0.07,,,-99.99,126.440002,,2013-01-19 19:59:00,
2013-01-19 15:00:00,36.0,34.0,-100.00,SSW,202,10.0,-999.0,92,-99.99,,,-99.99,88.160004,,2013-01-19 20:00:00,
2013-01-19 15:59:00,36.0,34.0,-100.00,SSW,202,10.0,-999.0,92,-99.99,,,-99.99,88.160004,,2013-01-19 20:59:00,
2013-01-19 16:00:00,37.0,35.0,-100.00,SSW,202,7.0,-999.0,91,-99.99,,,-99.99,59.160000,,2013-01-19 21:00:00,
2013-01-19 16:54:00,37.0,35.0,-100.00,SSW,202,7.0,-999.0,91,-99.99,,,-99.99,59.160000,,2013-01-19 21:54:00,
2013-01-19 17:00:00,38.0,34.0,-100.00,SW,225,9.0,-999.0,87,-99.99,,,-99.99,22.040001,,2013-01-19 22:00:00,
2013-01-19 17:49:00,38.0,34.0,-100.00,SW,225,9.0,-999.0,87,-99.99,,,-99.99,22.040001,,2013-01-19 22:49:00,
2013-01-19 17:59:00,38.0,34.0,-100.00,SW,225,9.0,-999.0,87,-99.99,,,-99.99,22.040001,,2013-01-19 22:59:00,
2013-01-19 18:00:00,38.0,34.0,-100.00,SW,225,11.0,-999.0,84,-99.99,,,-99.99,1.160000,,2013-01-19 23:00:00,
2013-01-19 18:52:00,38.0,34.0,-100.00,SW,225,11.0,-999.0,84,-99.99,,,-99.99,1.160000,,2013-01-19 23:52:00,
2013-01-19 19:00:00,38.0,34.0,-100.00,SW,225,10.0,-999.0,86,0.01,,,-99.99,0.000000,,2013-01-20 00:00:00,
2013-01-19 19:48:00,38.0,34.0,-100.00,SW,225,10.0,-999.0,86,0.01,,,-99.99,0.000000,,2013-01-20 00:48:00,
2013-01-19 19:58:00,38.0,34.0,-100.00,SW,225,10.0,-999.0,86,0.01,,,-99.99,0.000000,,2013-01-20 00:58:00,
2013-01-19 20:00:00,38.0,34.0,-100.00,SW,225,13.0,-999.0,84,0.01,,,-99.99,0.000000,,2013-01-20 01:00:00,
2013-01-19 20:52:00,38.0,34.0,-100.00,SW,225,13.0,-999.0,84,0.01,,,-99.99,0.000000,,2013-01-20 01:52:00,
2013-01-19 21:00:00,35.0,32.0,-100.00,WSW,247,14.0,-999.0,89,-99.99,,,-99.99,0.000000,,2013-01-20 02:00:00,
2013-01-19 21:45:00,35.0,32.0,-100.00,WSW,247,14.0,-999.0,89,-99.99,,,-99.99,0.000000,,2013-01-20 02:45:00,
2013-01-19 22:47:00,35.0,29.0,-100.00,WSW,247,10.0,-999.0,77,0.01,,,-99.99,0.000000,,2013-01-20 03:47:00,
2013-01-19 22:58:00,35.0,29.0,-100.00,WSW,247,10.0,-999.0,77,0.01,,,-99.99,0.000000,,2013-01-20 03:58:00,
2013-01-19 23:00:00,34.0,27.0,-100.00,SW,225,12.0,-999.0,77,-99.99,,,-99.99,0.000000,,2013-01-20 04:00:00,
2013-01-19 23:45:00,34.0,27.0,-100.00,SW,225,12.0,-999.0,77,-99.99,,,-99.99,0.000000,,2013-01-20 04:45:00,
2013-01-19 23:59:00,34.0,27.0,-100.00,SW,225,12.0,-999.0,77,-99.99,,,-99.99,0.000000,,2013-01-20 04:59:00,